sat.trackr.live / text

‹ back to catalog

EROS C3

NORAD 54880 · 2022-179A

PAYLOAD ACTIVE UNKNOWN

§ Identity

Operator
Country
ISRA
Launch date
2022-12-30
Launch site
AFWTR
Launch vehicle
Mass (kg)
RCS (m²)

External: N2YO · Heavens-Above · Gunter

§ Orbital elements

Epoch: 2026-09-21T18:37:04.391328Z

Period
95.27 min
Inclination
139.3338°
Eccentricity
0.0009062
Mean motion
15.11446763 rev/d
Perigee alt
525.5 km
Apogee alt
538.0 km
Semi-major
6,909.9 km
B*
1.8730e-4
RAAN
196.8082°
Arg perigee
285.2587°
Mean anomaly
74.7220°
Rev number
20,694

§ Raw data

EROS C31 54880U 22179A   26264.77574527  .00003473  00000+0  18730-3 0  99982 54880 139.3338 196.8082 0009062 285.2587  74.7220 15.11446763206946

JSON: /api/v1/satellites/54880 · /tle

For live sub-satellite position, see the globe view (requires WebGL).

§ Visibility from observer

Set your observer location to see the next 7 days of passes ≥ 10°. The values pass through the URL so the page stays shareable.

No JS? Fill the form by hand. The geolocation button needs JavaScript.